Showing default

ELEKTRO-L 3, 44903

Orbit data source: Space-Track

ELEKTRO-L 3, 44903 is a Commonwealth of Independent States-origin payload satellite in GEO that was launched on Tue, 24 Dec 2019 UTC via a PROTON-M/DM-3 launch vehicle from the Tyuratam Missile And Space Complex (TTMTR). Payload-class satellites include a variety of spacecraft equipped with specific instruments for various scientific and technological missions. These include communications satellites like Starlink; space stations such as the ISS; scientific satellites like the Hubble; Earth observation satellites from companies like Planet Labs, Umbra, and HawkEye 360; GPS; miniature CubeSats for education and research; and military/defense satellites.

Not visible in the next 10 days
Identifier
44903, 2019-095A
Orbit
GEO
Country
Flag of CISCIS
Related business
Manufacturer
Lavochkin
Mission
Operational Civil Weather
Bus & Motor
NAVIGATOR, Unknown motor
Mass
2,283 kg wet, 1,589 kg dry
Launch date (UTC)
2019-12-24 (6 years ago)
Launch vehicle
PROTON-M/DM-3
Launch site
Tyuratam Missile And Space Complex (TTMTR)
Object type
Payload
Rocket body
Debris
Shape & HBR
Box + 1 Pan + 1 Ant, Unknown HBR
Radar Cross Section
11.105 m², Large (>1 m²)

Expand to show TLE details & history
Last TLE update: 20 hours ago

TLE from 20 hours ago
0 ELEKTRO-L 3
1 44903U 19095A   25261.16886727 -.00000117  00000-0  00000-0 0  9995
2 44903   0.0767 297.3548 0001436 301.4797 255.2877  1.00272616 20985
Epoch: 2025-09-18T04:03Z
TLE epoch observation values (Epoch: 2025-09-18T04:03:10.132Z)
Latitude
-0.03625°
Longitude
75.98177°
Altitude
35,787.371 km
Speed
3.075 km/s
True Right ascension
08h 56m 25s
True Declination
0° 02' 10"
Sunlit
Object was in daylight at epoch
Visualization orbit readout
Latitude
Unknown
Longitude
Unknown
Altitude
Unknown
Speed
Unknown
Apparent Right ascension
Unknown
Apparent Declination
Unknown
Sunlit
N/A
Visualization observer readout
Local Sidereal Time
16:47:34
Azimuth
Unknown
Elevation
Unknown
Doppler factor
Unknown
Orbital elements
Apogee altitude
35,793.487 km
Perigee altitude
35,781.377 km
Semi-major axis
42,165.569 km
Eccentricity
0.00014
Inclination
0.0767°
RAAN
297.3548°
Arg. of periapsis
301.4797°
True anomaly
255.27178°
Mean anomaly
255.2877°
Eccentric anomaly
255.27974°
Mean motion
0.25067 °/min
Orbital period
1,436.14 mins
BSTAR
0
Loading maneuver chart data...
Computing Atmospheric mass density...
Loading historical data...
Loading historical data...
Loading historical data...
Loading historical data...
Loading historical data...
Loading historical data...
Loading historical data...
Other satellites on launch #95 in the year 2019 (2019-12-24 UTC)

Documentation

Showing up to 5 results
|